Flag for China Weather past 2 weeks in Kunming, Yunnan, China

Now
70 °F

Clear.


Feels Like: 70 °F
Forecast: 59 / 82 °F
Wind: 13 mph from Southwest

Location: Kunming Airport

Current Time: May 28, 2015 at 11:16:20 PM

Latest Report: May 28, 2015 at 10:00 PM


Visibility: 10 mi

Pressure: 29.92 "Hg

Humidity: 53%

Dew point: 52 °F

Location of KunmingLocation

Historic Weather in Kunming — Graph

°F

Kunming temperature yesterday

Maximum temperature yesterday: 82 °F (at 3:00 PM)
Minimum temperature yesterday: 63 °F (at 5:00 AM)
Average temperature yesterday: 71 °F

Past Weeks' High & Low Weather Summary

 TemperatureHumidityPressure
High84 °F (May 18, 2:00 PM)100% (May 23, 1:00 AM)30.21 "Hg (May 23, 1:00 AM)
Low54 °F (May 23, 6:00 AM)28% (May 18, 5:00 PM)29.86 "Hg (May 28, 5:00 PM)
Average68 °F65%30.03 "Hg
* Reported May 13 10:00 PM — May 28 10:00 PM, Kunming, Weather by CustomWeather, © 2015

Note: Actual official high and low records may vary slightly from our data, if they occured in-between our weather recording intervals... More about our weather records

Advertising

Kunming weather history for previous 24 hours

 ConditionsComfort  
Time TempWeatherWind HumidityBarometerVisibility
10:00 PM
Thu, May 28
70 °FClear.13 mph53%29.92 "Hg10 mi
9:00 PM72 °FClear.15 mph50%29.92 "Hg10 mi
8:00 PM77 °FClear.20 mph39%29.89 "Hg10 mi
7:00 PM79 °FPassing clouds.20 mph37%29.89 "HgN/A
6:00 PM82 °FPassing clouds.20 mph35%29.86 "HgN/A
5:00 PM82 °FPassing clouds.22 mph32%29.86 "HgN/A
4:00 PM84 °FPassing clouds.20 mph33%29.89 "HgN/A
3:00 PM82 °FSunny.17 mph32%29.89 "Hg10 mi
2:00 PM82 °FPassing clouds.17 mph32%29.92 "HgN/A
1:00 PM81 °FSunny.20 mph37%29.95 "Hg10 mi
12:00 PM77 °FPassing clouds.17 mph42%29.95 "HgN/A
11:00 AM75 °FSunny.17 mph44%29.98 "Hg10 mi
10:00 AM72 °FSunny.20 mph50%29.98 "Hg10 mi
9:00 AM68 °FSunny.22 mph56%29.98 "Hg10 mi
8:00 AM64 °FSunny.17 mph68%29.98 "Hg10 mi
7:00 AM61 °FSunny.15 mph77%29.95 "Hg10 mi
6:00 AM61 °FClear.13 mph72%29.95 "Hg10 mi
5:00 AM61 °FClear.10 mph72%29.92 "Hg10 mi
4:00 AM61 °FClear.13 mph72%29.92 "Hg10 mi
3:00 AM63 °FClear.17 mph73%29.95 "Hg10 mi
2:00 AM64 °FClear.17 mph68%29.95 "Hg10 mi
1:00 AM64 °FClear.15 mph68%29.95 "Hg10 mi
12:00 AM66 °FClear.20 mph64%29.98 "Hg10 mi
11:00 PM
Wed, May 27
68 °FClear.15 mph60%29.98 "Hg10 mi
Weather by CustomWeather, © 2015

See weather overviewHow to use our weather pages